Hourly Data Report for September 04, 2017

All times are specified in Local Standard Time (LST). Add 1 hour to adjust for Daylight Saving Time where and when it is observed.

KAMLOOPS A
BRITISH COLUMBIA

50°42'09.000" N
120°26'55.000" W
345.30 m
1163781
71887
YKA

Download Data

Hourly Data (September 2017)
Hourly Data Report for September 4, 2017
Temp Definition
°C
Dew Point Temp Definition
°C
Rel Hum Definition
%
Wind Dir Definition
10's deg

Wind Spd Definition
km/h
Visibility Definition
km
Stn Press Definition
kPa
Hmdx Definition


Wind Chill Definition


Weather Definition


TIME
00:00 Legend Double Dagger 18.6 10.9 60 30 7 40.2 98.14     LegendNANA
01:00 Legend Double Dagger 18.6 10.5 59 29 7 16.1 98.18     Clear
02:00 Legend Double Dagger 18.6 9.7 56 29 4 16.1 98.22     LegendNANA
03:00 Legend Double Dagger 17.7 9.2 57 26 8 16.1 98.27     LegendNANA
04:00 Legend Double Dagger 16.7 9.9 64 29 5 16.1 98.30     Clear
05:00 Legend Double Dagger 17.2 9.6 60 28 5 9.7 98.35     Smoke
06:00 Legend Double Dagger 15.6 9.8 68 30 7 9.7 98.39     Smoke
07:00 Legend Double Dagger 17.6 10.0 61 32 5 16.1 98.43     Mostly Cloudy
08:00 Legend Double Dagger 18.6 9.8 56 27 3 14.5 98.44     LegendNANA
09:00 Legend Double Dagger 20.4 10.3 52 25 5 8.1 98.41     Smoke
10:00 Legend Double Dagger 21.8 10.4 48 22 4 4.8 98.35     Smoke
11:00 Legend Double Dagger 24.5 10.5 41 19 6 3.2 98.26 26   Smoke
12:00 Legend Double Dagger 26.3 10.2 36 25 4 4.8 98.16 28   Smoke
13:00 Legend Double Dagger 28.2 9.9 31 18 6 12.9 98.07 29   Mainly Clear
14:00 Legend Double Dagger 30.5 7.5 23 15 4 24.1 97.97 31   LegendNANA
15:00 Legend Double Dagger 31.3 9.1 25 16 7 24.1 97.87 32   LegendNANA
16:00 Legend Double Dagger 32.0 9.7 25 17 4 24.1 97.80 33   Clear
17:00 Legend Double Dagger 31.0 11.4 29 28 7 16.1 97.72 33   LegendNANA
18:00 Legend Double Dagger 28.0 14.0 42 30 7 24.1 97.68 31   LegendNANA
19:00 Legend Double Dagger 26.2 9.0 33 30 8 24.1 97.70 27   Clear
20:00 Legend Double Dagger 25.3 10.4 38 36 3 24.1 97.74 27   LegendNANA
21:00 Legend Double Dagger 22.6 9.8 44 21 5 24.1 97.76     LegendNANA
22:00 Legend Double Dagger 20.5 11.4 56 36 1 24.1 97.80     Clear
23:00 Legend Double Dagger 19.2 10.1 55 36 1 24.1 97.85     LegendNANA

Notes on Data Quality.

Legend

  • E = Estimated
  • M = Missing
  • NA = Not Available
  • ‡ = Partner data that is not subject to review by the National Climate Archives
Date modified: